Weather History for Eagle Creek, IN

Change the Weather History Date:

Monday, February 4, 2013

  Actual Average Record
Temperature  
Mean Temperature 29 °F 29 °F  
Max Temperature 37 °F 37 °F 64 °F (2008)
Min Temperature 20 °F 22 °F 0 °F (2007)
Degree Days  
Heating Degree Days 36 36  
Month to date heating degree days 180 144  
Since 1 July heating degree days 3339 3345  
Cooling Degree Days 0 0  
Month to date cooling degree days 0 0  
Year to date cooling degree days 0 0  
Moisture  
Dew Point 23 °F    
Average Humidity 78    
Maximum Humidity 92    
Minimum Humidity 63    
Precipitation  
Precipitation T in 0.06 in 0.55 in (1997)
Month to date precipitation 0.03 0.24  
Year to date precipitation 4.70 2.45  
Sea Level Pressure  
Sea Level Pressure 29.91 in    
Wind  
Wind Speed 5 mph (SSW)    
Max Wind Speed 14 mph    
Max Gust Speed 20 mph    
Visibility 9 miles    
Events Snow    
T = Trace of Precipitation, MM = Missing Value Source: NWS Daily Summary

Daily Weather History Graph

Daily Weather History Graph

Search for Another Location

Airport:

Trip Planner

Search our weather history database for the weather conditions in past years. The results will help you decide how hot, cold, wet, or windy it might be!

Date:

Astronomy

Feb. 04, 2013 Rise Set
Actual Time 7:50 AM EST 6:08 PM EST
Civil Twilight 7:21 AM EST 6:36 PM EST
Nautical Twilight 6:49 AM EST 7:09 PM EST
Astronomical Twilight 6:18 AM EST 7:40 PM EST
Moon 2:25 AM EST (2/4) 12:32 PM EST (2/4)
Length of Visible Light 11h 15m
Length of Day
10h 18m
Last Quarter, 37% of the Moon is Illuminated
Feb 4
Last Quarter
Feb 10
New
Feb 17
First Quarter
Feb 25
Full
Mar 4
Last Quarter

Hourly Weather History & Observations

Time (EST) Temp. Windchill Dew Point Humidity Pressure Visibility Wind Dir Wind Speed Gust Speed Precip Events Conditions
12:53 AM 19.9 °F 13.4 °F 14.0 °F 78% 30.12 in 10.0 mi SSW 4.6 mph - N/A   Overcast
1:53 AM 21.0 °F 16.2 °F 12.9 °F 71% 30.09 in 10.0 mi SW 3.5 mph - N/A   Mostly Cloudy
2:53 AM 21.0 °F 16.2 °F 14.0 °F 74% 30.09 in 10.0 mi SSW 3.5 mph - N/A   Overcast
3:53 AM 21.0 °F 16.2 °F 14.0 °F 74% 30.07 in 10.0 mi South 3.5 mph - N/A   Overcast
5:53 AM 21.9 °F 15.7 °F 15.1 °F 75% 30.01 in 10.0 mi SSE 4.6 mph - N/A   Overcast
6:53 AM 23.0 °F 14.7 °F 17.1 °F 78% 29.98 in 10.0 mi SSE 6.9 mph - N/A   Overcast
7:53 AM 23.0 °F 13.1 °F 17.1 °F 78% 29.95 in 10.0 mi SSE 9.2 mph - N/A   Overcast
8:53 AM 23.0 °F 15.8 °F 17.1 °F 78% 29.94 in 10.0 mi SSE 5.8 mph - N/A   Overcast
9:53 AM 25.0 °F 17.1 °F 17.1 °F 72% 29.91 in 10.0 mi SSE 6.9 mph - N/A   Overcast
10:53 AM 27.0 °F 21.6 °F 18.0 °F 69% 29.89 in 10.0 mi SSE 4.6 mph - N/A   Overcast
11:53 AM 30.0 °F - 19.9 °F 66% 29.88 in 10.0 mi Calm Calm - N/A   Overcast
12:53 PM 32.0 °F 25.6 °F 21.9 °F 66% 29.87 in 6.0 mi South 6.9 mph - 0.00 in Snow Light Snow
12:58 PM 32.0 °F 23.6 °F 23.0 °F 69% 29.83 in 2.5 mi SSW 10.4 mph - 0.00 in Snow Light Snow
1:07 PM 30.2 °F 21.9 °F 26.6 °F 86% 29.83 in 1.2 mi SSW 9.2 mph - 0.00 in Snow Light Snow
1:19 PM 30.2 °F 20.8 °F 28.4 °F 93% 29.82 in 3.0 mi SSW 11.5 mph - 0.00 in Snow Light Snow
1:35 PM 32.0 °F 23.0 °F 28.4 °F 87% 29.80 in 3.0 mi SSW 11.5 mph - 0.00 in Snow Light Snow
1:53 PM 32.0 °F 23.6 °F 28.9 °F 88% 29.82 in 9.0 mi SSW 10.4 mph - 0.00 in   Overcast
2:53 PM 34.0 °F 26.0 °F 30.0 °F 85% 29.81 in 10.0 mi SSW 10.4 mph - N/A   Mostly Cloudy
3:53 PM 36.0 °F 31.1 °F 30.9 °F 82% 29.81 in 10.0 mi WSW 5.8 mph - N/A   Mostly Cloudy
4:53 PM 37.0 °F 34.5 °F 30.9 °F 79% 29.82 in 10.0 mi Variable 3.5 mph - N/A   Clear
5:53 PM 36.0 °F - 30.0 °F 79% 29.82 in 10.0 mi Calm Calm - N/A   Clear
6:53 PM 33.1 °F - 30.0 °F 89% 29.83 in 10.0 mi Calm Calm - N/A   Mostly Cloudy
7:53 PM 32.0 °F 28.7 °F 30.9 °F 96% 29.86 in 10.0 mi NNW 3.5 mph - N/A   Overcast
8:53 PM 32.0 °F 24.8 °F 26.1 °F 79% 29.90 in 10.0 mi North 8.1 mph - N/A   Overcast
9:19 PM 30.2 °F 22.6 °F 26.6 °F 86% 29.87 in 10.0 mi North 8.1 mph - N/A   Overcast
9:53 PM 30.9 °F 24.3 °F 25.0 °F 79% 29.91 in 10.0 mi North 6.9 mph - N/A   Overcast
10:53 PM 30.0 °F 24.1 °F 24.1 °F 79% 29.90 in 10.0 mi North 5.8 mph - N/A   Overcast
11:53 PM 28.9 °F 21.9 °F 24.1 °F 82% 29.92 in 9.0 mi NNE 6.9 mph - N/A   Overcast